Regional Weather Roundup
Issued by NWS

Home | Current Version | Previous Version | Graphics & Text | Print | Product List | Glossary On
Versions: 1 2 3 4 5 6 7 8 9 10 11 12 13 14 15 16 17 18 19 20 21 22 23 24 25 26
000
ASUS45 KBOU 132110
RWRCO

WEATHER ROUNDUP FOR COLORADO
NATIONAL WEATHER SERVICE DENVER/BOULDER CO
200 PM MST WED DEC 13 2017

NOTE: "FAIR" INDICATES FEW OR NO CLOUDS BELOW 12000 FEET WITH NO
SIGNIFICANT WEATHER AND/OR OBSTRUCTIONS TO VISIBILITY.

COZ001>005-013-030-031-132200-
...NORTHWEST COLORADO...

CITY           SKY/WX    TMP DP  RH WIND       PRES   REMARKS
CRAIG          CLOUDY    36  22  56 CALM      30.11F
HAYDEN         CLOUDY    40  21  46 CALM      30.12F
MEEKER         CLOUDY    44  14  29 CALM      30.10F
RABBIT EARS PA CLOUDY    30   1  29 W6        30.15F WCI  24
STEAMBOAT SPGS CLOUDY    35  21  57 CALM      30.11F
WALDEN         FAIR      41   5  22 S9        30.09F
$$

COZ006>008-011-132200-
...WEST CENTRAL VALLEYS...

CITY           SKY/WX    TMP DP  RH WIND       PRES   REMARKS
GRAND JUNCTION CLOUDY    43  14  31 CALM      30.10F
MONTROSE       CLOUDY    46  12  25 NW3       30.10F
EAGLE          CLOUDY    32  17  54 W3        30.14F
RIFLE          CLOUDY    40  14  34 CALM      30.11F
DELTA          CLOUDY    47  11  23 W3        30.09F
NUCLA          FAIR      48   9  20 CALM      30.14F
$$

COZ017>023-064>068-132200-
...SOUTHWEST COLORADO...

CITY           SKY/WX    TMP DP  RH WIND       PRES   REMARKS
DURANGO        FAIR      48   8  19 CALM      30.10F
CORTEZ         FAIR      45   6  20 SW14      30.10F
PAGOSA SPRINGS FAIR      47  -1  13 CALM      30.11F
TELLURIDE      FAIR      51   2  13 W12       30.15F
WOLF CREEK PAS NOT AVBL
$$

COZ009-010-012-014-032>034-037-058>063-132200-
...CENTRAL COLORADO...

CITY           SKY/WX    TMP DP  RH WIND       PRES   REMARKS
ASPEN          CLOUDY    42  12  29 N7        30.10F
BUENA VISTA    FAIR      53  -1  11 SW9       30.05F
COPPER MTN     NOT AVBL
BERTHOUD PASS  CLOUDY    21  10  63 NW26G36   30.14F WCI   4
COTTONWOOD PAS FAIR      52  -2  11 CALM      30.12F
GUNNISON       FAIR      35  10  35 W6        30.14F WCI  30
KREMMLING      CLOUDY    34  21  60 CALM      30.14F
LEADVILLE      CLOUDY    37  -1  20 N6        30.13F
MONARCH PASS   FAIR      32   0  25 W29G37    30.29F WCI  18
SALIDA         FAIR      52   1  12 CALM      30.12F
SUNLIGHT       CLOUDY    34  10  37 SW5       30.22F WCI  30
WILKERSON PASS FAIR      37  -8  14 SW8       30.17F
$$

COZ069>075-132200-
...SAN LUIS VALLEY/SANGRE DE CRISTO MOUNTAINS...

CITY           SKY/WX    TMP DP  RH WIND       PRES   REMARKS
ALAMOSA        FAIR      48   7  18 CALM      30.08F
DEL NORTE      FAIR      47   6  18 E3        30.10F
LA VETA PASS   FAIR      43   3  19 SW12G22     N/A
SAGUACHE       FAIR      43   9  24 SE7       30.09F
$$

COZ035-036-038>040-132200-
...NORTHERN COLORADO FRONT RANGE...

CITY           SKY/WX    TMP DP  RH WIND       PRES   REMARKS
DENVER INTL AP FAIR      50   9  19 E5        30.03F
DMNS CITY PARK NOT AVBL
AURORA         MOSUNNY   50  10  19 E7        30.03F
FRONT RANGE AP MOSUNNY   50  10  20 NE7       30.04F
ERIE MUNI ARPT FAIR      53   4  14 S6        30.08F
BOULDER MUN AP FAIR      52   9  17 SE7       30.02F
CENTENNIAL     PTSUNNY   48  10  21 SE6       30.03F
BROOMFIELD     MOSUNNY   52   7  16 SE7       30.04F
FORT COLLINS   PTSUNNY   53  11  18 S8        30.03F
LONGMONT         N/A    N/A N/A N/A MISG        N/A
$$

COZ041-046-047-076>085-087-088-132200-
...PIKES PEAK/PALMER DIVIDE AND SOUTHERN FOOTHILLS...

CITY           SKY/WX    TMP DP  RH WIND       PRES   REMARKS
COLO. SPRINGS  FAIR      48   8  19 S6        30.07F
A. F. ACADEMY  FAIR      49   4  16 S12       30.05F
SCHRIEVER AFB  FAIR      47   5  18 SW9       30.07F
CHEYENNE MTN   FAIR      43   6  22 SE9       30.01F
ELLICOTT         N/A    N/A N/A N/A SW7       30.05F
FALCON         FAIR      48   2  15 S13G18    30.08F
FORT CARSON    FAIR      47   7  19 S9        30.05F
LIMON          FAIR      51  10  19 N14G23    30.04F
MONUMENT HILL  FAIR      41   7  24 E6        30.08F
CANON CITY     FAIR      54  10  17 NE3       30.04F
WALSENBURG     FAIR      55   7  14 SE8       30.05F
TRINIDAD       FAIR      51   8  17 SE5       30.06F
$$

COZ042>045-048>051-090-091-132200-
...NORTHEAST COLORADO...

CITY           SKY/WX    TMP DP  RH WIND       PRES   REMARKS
GREELEY ARPT   NOT AVBL
AKRON          FAIR      51  11  20 N25G33    30.02F
BURLINGTON     FAIR      53  13  20 N15G30    29.99F
WRAY           FAIR      55  12  18 N29       29.99F
YUMA           FAIR      50  14  23 NW22      30.00F
STERLING       FAIR      54  14  20 N25G32    30.01F
HOLYOKE        FAIR      55  14  19 NW24G30   29.99F
FORT MORGAN    FAIR      53   9  17 N20G26    30.02F
$$

COZ086-089-092>099-132200-
...SOUTHEAST COLORADO...

CITY           SKY/WX    TMP DP  RH WIND       PRES   REMARKS
PUEBLO         FAIR      55   7  14 SE8       30.04F
LA JUNTA       FAIR      56  11  16 N10       30.05F
LAMAR          FAIR      60  14  16 N12       30.00F
SPRINGFIELD      N/A     56  14  19 N18G24    30.02F
$$




USA.gov is the U.S. government's official web portal to all federal, state and local government web resources and services.